[Iaude] MPEC F05: 2022 EY6 [a=1.65,e=0.61,i=32.6,H=20.6]

mpec at marsden.cfa.harvard.edu mpec at marsden.cfa.harvard.edu
Thu Mar 17 10:57:10 EDT 2022


M.P.E.C. 2022-F05                                Issued 2022 March 17, 14:55 UT

     The Minor Planet Electronic Circulars contain information on unusual
         minor planets and routine data on comets.  They are published
    on behalf of Division F of the International Astronomical Union by the
          Minor Planet Center, Smithsonian Astrophysical Observatory,
                          Cambridge, MA 02138, U.S.A.

             Prepared using the Tamkin Foundation Computer Network

                              MPC at CFA.HARVARD.EDU
            URL https://www.minorplanetcenter.net/    ISSN 1523-6714

                                    2022 EY6                                    


Observations:
     K22E06Y  C2022 03 12.44158413 10 51.103+69 44 46.22         20.01GVEF005F52
     K22E06Y  C2022 03 12.45125113 10 34.273+69 43 37.39         19.92GVEF005F52
     K22E06Y  C2022 03 12.46083613 10 17.575+69 42 28.78         20.10GVEF005F52
     K22E06Y  C2022 03 12.47053013 10 00.629+69 41 19.25         20.08GVEF005F52
     K22E06Y  C2022 03 12.49525513 09 17.813+69 38 21.11               VEF005F52
     K22E06Y  C2022 03 12.50206713 09 06.185+69 37 32.30         19.98GVEF005F52
     K22E06Y  C2022 03 12.50919613 08 53.757+69 36 40.21         20.17GVEF005F52
     K22E06Y  C2022 03 13.43539012 45 05.245+67 37 37.94         19.90GVEF005F52
     K22E06Y  C2022 03 13.45724912 44 33.832+67 34 41.88         20.02GVEF005F52
     K22E06Y  C2022 03 14.39596712 24 31.150+65 22 34.04         19.55GVEF005F52
     K22E06Y  C2022 03 14.39724112 24 29.644+65 22 23.18         20.13GVEF005F52
     K22E06Y  C2022 03 14.40751212 24 17.372+65 20 54.44         19.51GVEF005F52
     K22E06Y  C2022 03 14.40877112 24 15.814+65 20 43.20         19.40GVEF005F52
     K22E06Y  C2022 03 14.43048612 23 49.890+65 17 34.98         19.59GVEF005F52
     K22E06Y* C2022 03 15.37999212 07 04.580+62 55 56.49         19.42iUEF005F52
     K22E06Y  C2022 03 15.39146312 06 53.239+62 54 13.24         19.66iUEF005F52
     K22E06Y  C2022 03 15.40289912 06 41.904+62 52 29.53         19.62iUEF005F52
     K22E06Y  C2022 03 15.41444612 06 30.468+62 50 44.54         19.23iUEF005F52
     K22E06Y  C2022 03 15.46901512 05 36.765+62 42 26.37         19.52GVEF005F52
     K22E06Y  C2022 03 15.46964512 05 36.173+62 42 20.72         18.95GVEF005F52
     K22E06Y DC2022 03 16.15591 11 55 28.66 +60 56 21.6          20.1 GVEF005695
     K22E06Y DC2022 03 16.15909 11 55 25.97 +60 55 52.4          20.0 GVEF005695
     K22E06Y DC2022 03 16.16216 11 55 23.37 +60 55 24.2          20.4 GVEF005695
     K22E06Y KC2022 03 16.24074511 54 15.32 +60 43 19.7          19.6 VuEF005H21
     K22E06Y KC2022 03 16.24354311 54 12.92 +60 42 53.7          19.5 VuEF005H21
     K22E06Y KC2022 03 16.24637811 54 10.55 +60 42 27.3          19.4 VuEF005H21
     K22E06Y KC2022 03 16.24983811 54 07.60 +60 41 54.9          19.5 VuEF005H21
     K22E06Y KC2022 03 16.25051711 54 08.58 +60 41 49.9          19.50GVEF005I52
     K22E06Y KC2022 03 16.25125511 54 07.98 +60 41 43.1          19.88GVEF005I52
     K22E06Y KC2022 03 16.25199311 54 07.36 +60 41 35.9          19.64GVEF005I52
     K22E06Y KC2022 03 16.25273111 54 06.72 +60 41 29.1          19.65GVEF005I52
     K22E06Y  C2022 03 16.42633611 51 45.475+60 14 34.99         19.55GVEF005F52
     K22E06Y  C2022 03 16.42670511 51 45.148+60 14 31.44               VEF005F52
     K22E06Y  C2022 03 16.42803811 51 44.097+60 14 19.36         19.48iUEF005F52
     K22E06Y  C2022 03 16.43777211 51 36.103+60 12 48.42         19.69iUEF005F52
     K22E06Y  C2022 03 16.44747111 51 28.197+60 11 17.62         19.32iUEF005F52
     K22E06Y KC2022 03 16.95087311 45 08.46 +58 52 14.4          19.6 GVEF005J95
     K22E06Y KC2022 03 16.95691111 45 04.01 +58 51 17.8          19.3 GVEF005J95
     K22E06Y KC2022 03 16.96421611 44 58.62 +58 50 09.6          19.5 GVEF005J95
     K22E06Y KC2022 03 17.23051311 41 50.61 +58 08 29.3          19.1 VuEF005H21
     K22E06Y KC2022 03 17.23330911 41 48.66 +58 08 03.9          19.5 VuEF005H21
     K22E06Y KC2022 03 17.23638311 41 46.61 +58 07 34.3          19.2 VuEF005H21
     K22E06Y KC2022 03 17.34560511 40 31.25 +57 50 28.0          19.88GVEF005I52
     K22E06Y KC2022 03 17.34646311 40 30.65 +57 50 19.9          19.94GVEF005I52
     K22E06Y KC2022 03 17.34732111 40 30.06 +57 50 11.9          19.36GVEF005I52

Observer details:
695 Kitt Peak.  Observer A. F. Tubbiolo.  2.3-m f/9 reflector + CCD.
F52 Pan-STARRS 2, Haleakala.  Observers J. Bulger, K. Chambers, T. Dukes, T.
    Lowe, A. Schultz, I. Smith.  Measurers S. Chastel, M. Huber, Y.
    Ramanjooloo, R. Wainscoat, R. Weryk, K. Chambers, T. de Boer, J. Fairlamb,
    H. Gao, C.-C. Lin, E. Magnier.  1.8-m Ritchey-Chretien + CCD.
H21 Astronomical Research Observatory, Westfield.  Observer R. Holmes.
    Measurers T. Linder, R. Holmes, L. Horn.  0.76-m f/3.0 astrograph + CCD.
I52 Steward Observatory, Mt. Lemmon Station.  Observer H. Groeller.  Measurers
    E. J. Christensen, G. A. Farneth, J. B. Fazekas, D. C. Fuls, A. R. Gibbs,
    A. D. Grauer, H. Groeller, J. K. Hogan, R. A. Kowalski, S. M. Larson, G.
    J. Leonard, D. Rankin, R. L. Seaman, A. Serrano, F. C. Shelly, K. W.
    Wierzchos.
J95 Great Shefford.  Observer P. Birtwhistle.  0.41-m f/6.3 Schmidt-Cassegrain
    + CCD.

Orbital elements:
2022 EY6                                                 Earth MOID = 0.1513 AU
Epoch 2022 Jan. 21.0 TT = JDT 2459600.5                 Bell                    
M   4.67170              (2000.0)            P               Q                  
n   0.46315832     Peri.   61.85187     +0.36728477     -0.92727542             
a   1.6544351      Node     7.74614     +0.54516730     +0.15143176             
e   0.6068463      Incl.   32.56124     +0.75358776     +0.34238680             
P   2.13           H   20.66          G   0.15           U   9                  
Residuals in seconds of arc
220312 F52  0.2+  0.3+    220315 F52  0.1+  0.3+    220316 I52  0.0   0.2-
220312 F52  0.3+  0.3+    220315 F52  0.1+  0.2+    220316 F52  0.0   0.1-
220312 F52  0.2+  0.1+    220315 F52  0.0   0.1+    220316 F52  0.2-  0.2-
220312 F52  0.3-  0.1+    220315 F52  0.1-  0.2-    220316 F52  0.1+  0.2+
220312 F52  0.2-  0.0     220315 F52  0.1+  0.0     220316 F52  0.0   0.2+
220312 F52  0.6+  0.5+    220316 695  0.0   0.0     220316 F52  0.3+  0.1+
220312 F52  0.0   0.2+    220316 695  0.0   0.0     220316 J95  0.0   0.2-
220313 F52  0.1-  0.0     220316 695  0.0   0.0     220316 J95  0.0   0.2-
220313 F52  0.5+  0.2+    220316 H21  0.2+  0.1+    220316 J95  0.0   0.1+
220314 F52  0.1-  0.1-    220316 H21  0.0   0.1+    220317 H21  0.8-  0.2-
220314 F52  0.0   0.0     220316 H21  0.2+  0.2+    220317 H21  0.6-  0.7+
220314 F52  0.1+  0.0     220316 H21  0.2-  0.0     220317 H21  0.4+  0.0
220314 F52  0.2-  0.3-    220316 I52  0.1-  0.0     220317 I52  0.1+  0.1-
220314 F52  0.2-  0.3-    220316 I52  0.1+  0.0     220317 I52  0.1+  0.1-
220315 F52  0.1-  0.2-    220316 I52  0.1+  0.3-    220317 I52  0.1+  0.1+

Ephemeris:
2022 EY6                 a,e,i = 1.65, 0.61, 33                  q = 0.6504
Date    TT    R. A. (2000) Decl.     Delta      r    Elong.  Phase     V
2022 02 15    20 46 59.6 +44 46 01   0.4088  0.8562    59.5    96.2    21.8
...
2022 03 02    19 04 48.6 +67 09 07   0.2876  1.0054    84.6    78.9    20.7
...
2022 03 10    14 36 29.8 +73 29 13   0.2552  1.0870   104.9    62.0    20.1
...
2022 03 16    11 57 38.0 +61 20 35   0.2589  1.1479   120.5    48.3    19.8
2022 03 17    11 44 32.7 +58 44 37   0.2621  1.1580   122.8    46.2    19.8
2022 03 18    11 33 35.7 +56 07 37   0.2661  1.1681   124.9    44.3    19.8
...
2022 03 24    10 54 33.7 +41 25 22   0.3046  1.2280   134.0    35.7    20.0
...
2022 04 01    10 33 59.2 +26 44 01   0.3859  1.3062   136.5    31.8    20.5
...
2022 04 16    10 25 16.9 +11 11 30   0.5919  1.4467   128.3    33.0    21.7

M. P. C. Staff               (C) Copyright 2022 MPC           M.P.E.C. 2022-F05




More information about the Iaude mailing list